Probability
0 0 0 0 0 0 0 0 0 0 0 0 0 3 3 6 6 19 19 29 29 35 23 35 32 32 39 61 77 77 77 74 77 71 77 77 81 74 74 74 74 71 71 71
0 0 0 0 0 0 0 0 0 0 0 0 0 3 3 6 6 13 19 26 32 35 42 39 32 35 45 65 71 74 77 74 71 77 81 81 77 71 74 71 71 71 61 65
0 0 0 0 0 0 0 0 0 0 0 3 3 0 3 3 6 13 13 23 29 32 39 45 45 42 42 58 65 65 71 77 77 77 77 74 81 77 77 77 77 68 61 71
0 0 0 0 0 0 0 0 0 0 3 0 3 6 10 10 3 6 10 16 23 26 39 48 48 52 45 61 61 74 74 74 77 77 77 81 77 74 74 77 71 68 68 65
0 0 0 0 0 0 0 0 0 0 3 0 3 6 10 10 16 19 13 10 19 23 19 48 48 65 55 55 65 71 77 84 84 81 81 84 81 81 71 71 71 68 65 61
0 0 0 0 0 0 0 0 0 0 0 3 3 3 6 3 10 13 19 16 19 29 26 32 48 61 55 58 58 68 77 84 84 84 84 84 77 77 74 71 71 68 68 61
0 0 0 0 0 0 0 0 0 0 3 3 0 0 3 3 6 6 10 19 29 23 23 29 45 58 68 68 71 71 77 84 81 77 77 81 81 81 77 74 71 68 61 65
0 0 0 0 0 0 0 0 0 0 0 0 0 0 3 3 3 6 10 13 23 29 29 32 35 52 65 65 77 74 77 84 81 77 81 81 81 74 74 77 68 65 61 61
0 0 0 0 0 0 0 0 0 0 0 0 0 6 3 3 3 6 10 13 16 35 35 32 35 48 61 65 74 77 81 81 77 77 81 77 77 77 77 77 74 71 71 68
0 0 0 0 0 0 0 0 0 0 13 0 0 3 6 10 6 10 10 16 19 26 32 35 42 45 52 65 74 74 77 77 74 77 77 74 77 77 77 74 71 71 68 68
0 0 3 0 0 0 0 0 0 0 0 0 0 3 10 19 16 16 16 19 32 26 26 42 48 48 48 58 65 68 74 77 74 74 74 74 74 77 77 71 71 68 68 68
0 0 0 0 0 0 0 0 0 0 16 3 0 3 6 13 19 19 23 32 32 29 29 35 45 55 58 55 61 61 77 74 77 71 71 71 71 71 71 68 65 65 65 65
0 0 3 0 0 0 0 0 0 0 3 0 0 0 13 23 26 26 32 39 39 39 32 45 58 68 68 61 65 65 71 71 74 71 71 71 68 71 65 61 65 65 61 58
0 0 0 0 3 0 0 0 0 0 0 0 0 3 16 19 29 32 42 45 45 48 61 68 77 81 74 74 74 71 68 71 71 74 68 68 68 65 58 58 58 55 52 52
0 0 0 0 0 0 0 0 0 0 0 0 3 3 16 26 29 39 42 55 55 58 61 77 81 81 74 71 71 71 71 68 71 68 65 68 65 61 55 52 52 48 48 45
0 0 0 0 0 0 0 0 0 0 0 0 3 13 23 29 35 48 58 65 61 65 55 68 81 81 71 71 71 71 68 68 61 65 61 61 58 55 48 48 48 48 45 42
0 0 0 0 0 0 0 0 0 0 3 3 13 23 23 39 45 48 58 58 58 65 71 68 71 77 68 68 68 65 61 61 58 58 55 55 48 45 42 45 45 45 39 42
3 23 6 0 0 0 0 0 3 3 3 6 19 19 29 32 39 48 52 58 74 71 74 68 74 74 68 68 65 61 58 61 55 55 55 55 48 45 42 42 42 42 42 39
0 10 0 0 0 0 0 0 3 3 6 6 16 23 23 35 42 35 48 61 65 68 71 77 77 71 65 61 61 58 58 58 55 55 55 52 45 45 42 42 39 39 42 39
0 26 3 3 0 0 0 0 3 3 10 13 19 26 29 35 39 48 45 61 68 77 71 74 68 65 65 65 61 58 58 58 58 58 55 45 45 42 35 35 39 39 39 29
3 6 0 0 0 0 0 0 6 6 13 23 23 23 29 58 61 65 65 68 71 74 71 68 61 52 58 61 58 58 58 58 55 52 52 45 42 39 39 35 35 35 29 26
0 0 3 3 0 6 10 10 23 45 48 32 32 42 52 61 61 61 68 71 68 61 61 61 55 48 45 45 55 48 48 48 52 48 42 39 39 35 39 32 32 32 29 26
3 10 13 23 13 35 26 39 42 45 45 39 32 42 52 58 65 65 68 65 61 52 48 52 48 45 42 42 42 48 45 42 45 42 42 39 39 39 35 32 29 23 26 26
6 23 45 48 29 29 32 32 39 32 35 35 35 45 55 58 68 61 61 65 55 52 45 42 42 45 45 42 42 42 45 42 42 39 35 35 35 35 32 29 26 23 19 16
16 19 29 32 42 26 23 29 29 29 26 29 29 42 52 58 58 58 61 61 52 42 39 39 42 52 45 45 42 39 39 39 39 39 39 35 32 32 29 23 23 19 10 6
6 26 29 29 39 32 42 29 26 29 39 32 39 42 55 55 52 55 61 55 42 42 42 39 39 39 35 42 39 39 35 39 42 39 35 32 29 32 26 23 13 6 3 3
Height
5910 5913 5914 5917 5919 5923 5924 5925 5925 5925 5926 5925 5924 5923 5923 5922 5921 5920 5919 5919 5918 5917 5915 5914 5913 5912 5911 5909 5908 5907 5906 5905 5904 5903 5902 5901 5900 5899 5897 5896 5894 5893 5892 5891
5908 5911 5914 5916 5919 5921 5922 5924 5925 5925 5925 5925 5925 5924 5923 5923 5922 5921 5920 5919 5918 5917 5916 5915 5913 5913 5912 5911 5910 5909 5907 5906 5906 5905 5904 5903 5901 5900 5899 5897 5896 5894 5892 5891
5905 5911 5912 5914 5917 5920 5921 5923 5924 5924 5925 5924 5925 5924 5923 5923 5923 5922 5921 5920 5919 5918 5917 5916 5915 5914 5913 5912 5910 5909 5908 5908 5907 5906 5905 5904 5902 5901 5900 5898 5896 5895 5893 5892
5902 5907 5910 5912 5914 5918 5920 5923 5923 5923 5924 5924 5925 5924 5923 5923 5922 5922 5921 5920 5919 5919 5918 5916 5915 5915 5914 5913 5912 5910 5910 5909 5908 5907 5906 5905 5903 5902 5901 5899 5897 5895 5894 5892
5899 5903 5906 5909 5912 5915 5918 5921 5921 5921 5922 5924 5924 5925 5924 5922 5922 5921 5921 5920 5919 5919 5918 5917 5916 5915 5914 5913 5912 5912 5911 5910 5909 5908 5906 5905 5904 5903 5901 5900 5898 5896 5894 5892
5896 5899 5902 5906 5909 5912 5915 5918 5919 5919 5920 5922 5923 5923 5923 5921 5921 5920 5920 5919 5919 5919 5918 5917 5916 5915 5914 5914 5913 5912 5911 5910 5909 5908 5907 5906 5905 5903 5902 5900 5899 5897 5895 5893
5891 5894 5898 5902 5905 5909 5911 5914 5916 5917 5917 5919 5921 5921 5920 5919 5919 5919 5919 5918 5918 5918 5917 5917 5916 5915 5915 5914 5913 5912 5912 5911 5910 5909 5907 5906 5905 5904 5902 5901 5899 5897 5895 5894
5888 5891 5894 5897 5900 5904 5907 5911 5914 5915 5916 5918 5918 5919 5919 5917 5918 5917 5918 5918 5917 5917 5916 5916 5916 5915 5914 5914 5913 5912 5912 5911 5910 5909 5907 5906 5905 5904 5902 5901 5899 5897 5895 5893
5885 5889 5892 5894 5896 5900 5904 5907 5911 5913 5915 5916 5915 5916 5916 5915 5915 5916 5916 5916 5916 5915 5915 5915 5915 5914 5914 5913 5913 5912 5911 5911 5910 5909 5907 5906 5904 5903 5902 5900 5898 5897 5895 5893
5880 5884 5887 5890 5893 5896 5900 5904 5908 5910 5911 5912 5913 5914 5913 5912 5912 5913 5913 5914 5914 5913 5914 5914 5913 5913 5913 5912 5912 5911 5910 5910 5909 5908 5907 5905 5904 5902 5901 5899 5898 5896 5894 5892
5875 5879 5883 5885 5887 5892 5896 5899 5902 5906 5908 5910 5911 5912 5910 5909 5909 5909 5910 5911 5911 5911 5912 5911 5911 5911 5910 5910 5910 5910 5909 5908 5907 5906 5905 5904 5903 5901 5900 5898 5897 5895 5893 5891
5868 5874 5877 5880 5883 5888 5891 5895 5899 5902 5903 5905 5907 5909 5905 5905 5906 5906 5907 5908 5908 5909 5909 5909 5909 5909 5908 5908 5908 5907 5907 5906 5905 5904 5903 5902 5901 5900 5898 5897 5895 5893 5891 5889
5862 5866 5871 5876 5881 5883 5886 5889 5893 5897 5899 5901 5903 5905 5902 5901 5902 5903 5904 5904 5905 5905 5906 5906 5906 5906 5906 5906 5905 5905 5904 5904 5903 5902 5901 5900 5899 5898 5896 5894 5893 5891 5889 5887
5856 5860 5866 5871 5875 5878 5880 5885 5888 5892 5894 5897 5899 5899 5897 5898 5898 5899 5900 5901 5901 5902 5902 5903 5903 5903 5903 5903 5903 5901 5902 5901 5901 5900 5899 5898 5896 5895 5893 5892 5890 5888 5887 5885
5848 5854 5859 5864 5869 5873 5875 5879 5883 5886 5889 5893 5895 5895 5893 5893 5894 5895 5896 5897 5898 5898 5898 5899 5899 5900 5900 5900 5900 5899 5898 5898 5897 5897 5896 5895 5893 5892 5890 5889 5887 5886 5884 5882
5841 5847 5853 5858 5863 5867 5871 5874 5877 5881 5884 5888 5890 5890 5889 5889 5889 5890 5891 5892 5894 5894 5894 5895 5896 5896 5896 5896 5896 5896 5895 5895 5894 5894 5893 5891 5890 5888 5887 5885 5884 5882 5880 5878
5836 5841 5847 5852 5857 5860 5864 5868 5871 5875 5878 5882 5883 5884 5884 5885 5885 5885 5886 5887 5889 5890 5890 5891 5892 5892 5892 5892 5892 5892 5892 5891 5891 5890 5889 5888 5886 5884 5883 5881 5880 5878 5876 5875
5830 5835 5840 5845 5851 5853 5859 5863 5866 5869 5872 5875 5876 5877 5879 5880 5880 5880 5880 5882 5883 5884 5886 5887 5887 5888 5888 5888 5888 5888 5887 5887 5886 5886 5885 5883 5882 5880 5879 5877 5876 5874 5872 5870
5824 5830 5835 5840 5843 5847 5852 5856 5858 5861 5863 5866 5869 5871 5871 5873 5874 5875 5875 5877 5878 5880 5881 5882 5883 5883 5884 5884 5883 5883 5883 5882 5881 5880 5879 5877 5877 5875 5874 5872 5871 5869 5867 5865
5819 5824 5829 5833 5837 5841 5846 5847 5850 5854 5856 5859 5861 5863 5865 5866 5868 5870 5871 5872 5873 5874 5876 5877 5878 5878 5878 5878 5878 5878 5878 5877 5876 5875 5874 5872 5872 5870 5869 5867 5866 5864 5862 5860
5813 5817 5821 5826 5830 5834 5837 5839 5843 5847 5848 5851 5853 5856 5859 5860 5862 5864 5865 5867 5867 5868 5870 5871 5872 5872 5873 5873 5873 5872 5872 5871 5871 5870 5869 5867 5866 5865 5863 5862 5860 5858 5857 5855
5807 5812 5815 5820 5824 5829 5829 5832 5835 5837 5839 5843 5846 5849 5851 5852 5854 5857 5859 5860 5861 5861 5863 5864 5865 5866 5866 5866 5867 5866 5866 5865 5864 5864 5863 5862 5860 5859 5858 5856 5854 5852 5851 5849
5800 5806 5809 5813 5817 5819 5822 5825 5828 5830 5833 5835 5839 5841 5844 5846 5848 5850 5852 5853 5854 5855 5857 5858 5859 5860 5860 5860 5861 5860 5860 5859 5859 5858 5857 5856 5854 5853 5852 5850 5848 5846 5844 5842
5793 5798 5802 5805 5809 5813 5816 5819 5821 5824 5827 5829 5832 5835 5837 5839 5841 5843 5844 5846 5847 5849 5850 5851 5853 5853 5854 5854 5854 5854 5853 5853 5852 5852 5851 5850 5848 5847 5845 5844 5842 5840 5838 5836
5786 5790 5794 5798 5803 5806 5808 5810 5813 5817 5819 5822 5824 5827 5830 5833 5835 5836 5837 5837 5840 5841 5843 5844 5845 5846 5847 5847 5847 5847 5847 5846 5846 5845 5844 5843 5842 5840 5839 5837 5835 5834 5832 5830
5779 5783 5787 5791 5795 5799 5801 5803 5806 5809 5812 5814 5816 5820 5822 5825 5827 5829 5830 5831 5833 5834 5836 5837 5837 5838 5839 5839 5839 5839 5839 5839 5839 5838 5837 5836 5835 5833 5832 5830 5829 5827 5826 5824
Wind_Speed
12 12 11 10 8 7 6 5 5 4 2 3 5 5 6 6 5 6 7 7 8 8 8 9 10 10 10 10 10 10 10 10 10 10 11 11 11 11 11 11 12 11 10 9
15 14 13 11 11 10 9 8 6 5 3 3 5 5 5 6 6 5 6 7 7 7 8 8 9 9 9 10 10 9 10 9 10 10 11 12 12 12 12 12 11 11 10 10
16 15 14 13 13 12 11 9 8 7 6 6 6 7 6 7 7 6 6 6 7 7 7 7 8 8 8 8 9 9 10 10 10 10 11 11 12 12 13 13 13 12 11 11
19 18 17 17 15 14 12 10 11 9 7 6 6 8 9 9 8 7 6 6 7 7 7 7 7 7 7 8 8 10 10 10 10 10 10 11 11 12 13 13 13 12 11 12
21 21 21 19 17 17 15 12 11 10 8 8 8 9 10 11 10 8 8 7 8 7 7 7 7 7 7 7 8 9 9 9 9 9 10 10 11 11 12 13 13 13 12 12
23 21 21 20 19 18 17 14 13 12 11 12 11 10 12 13 11 9 9 8 8 8 7 7 6 6 7 8 8 9 9 9 9 9 10 10 11 11 12 13 13 13 13 13
24 23 22 21 20 20 19 16 15 14 13 12 10 11 13 13 12 11 11 10 8 8 7 7 6 6 6 8 9 9 9 9 9 9 10 10 11 11 12 13 13 13 13 13
24 23 22 22 22 21 20 17 16 13 11 11 10 12 12 13 13 12 12 11 9 8 7 7 6 7 7 8 9 9 9 9 9 10 10 10 11 11 12 12 13 14 14 14
23 23 23 22 22 21 20 19 17 15 13 14 13 13 14 16 13 13 14 12 12 10 9 8 7 7 8 8 9 10 9 9 10 10 11 11 11 11 13 13 14 14 14 15
23 22 23 24 22 22 21 20 18 19 18 17 14 14 15 16 16 14 14 13 13 11 10 9 8 7 8 8 9 10 10 10 11 11 11 11 11 11 13 14 15 15 15 15
26 24 23 25 25 22 22 21 21 20 19 17 15 17 17 17 18 16 14 13 14 12 11 10 9 9 9 9 10 11 10 11 11 11 11 12 12 13 13 14 15 16 16 16
29 26 23 25 24 22 23 23 21 22 22 19 17 17 18 18 18 18 17 17 16 14 13 13 12 11 11 11 11 11 11 11 11 12 12 12 13 14 14 15 16 16 16 16
30 29 25 22 23 23 24 24 24 23 21 20 19 19 19 20 20 19 18 19 17 16 15 15 14 13 13 13 12 12 12 12 13 13 13 14 15 15 15 16 16 17 17 17
31 31 29 25 23 22 23 24 24 24 23 22 21 20 21 20 20 20 18 18 18 17 17 16 15 15 14 14 13 12 13 13 14 14 15 15 16 16 17 17 17 18 18 18
33 32 32 28 24 23 23 23 24 26 25 23 21 20 21 21 21 21 19 18 18 18 18 18 17 16 16 16 16 15 14 14 16 16 16 17 17 18 18 19 18 19 19 19
33 33 32 31 26 24 24 24 26 26 24 23 22 23 23 22 22 21 20 20 20 19 19 19 18 18 17 17 17 17 18 17 17 17 18 18 18 19 20 20 20 19 19 20
32 33 31 30 30 27 28 26 26 27 26 25 25 25 24 26 26 24 24 23 21 21 20 19 19 19 19 18 19 19 19 19 19 19 19 20 20 20 21 21 20 20 20 20
33 32 31 28 28 30 28 25 25 28 28 27 28 28 27 28 28 27 25 23 22 22 21 19 20 20 20 20 20 20 21 20 20 21 21 20 21 21 21 21 21 20 21 21
32 33 31 29 29 28 27 26 27 28 29 28 30 29 28 30 30 28 26 24 23 22 21 20 21 21 21 21 22 22 22 22 22 22 22 22 22 21 21 21 21 21 21 21
31 32 32 31 30 28 26 27 27 28 31 29 30 31 31 31 30 28 27 27 27 25 23 22 23 22 22 23 23 23 23 23 23 22 23 23 22 22 22 22 22 22 23 23
31 32 32 31 31 30 28 27 26 28 29 30 30 31 32 31 31 30 29 28 27 26 25 24 25 25 24 23 23 23 23 23 23 23 23 23 22 22 23 23 23 24 24 24
30 31 33 31 31 28 30 29 29 29 29 29 30 32 33 31 30 30 29 29 28 28 26 26 25 25 24 24 24 24 24 24 24 23 23 23 23 24 24 24 24 25 25 24
30 30 32 32 33 33 32 32 32 31 30 30 31 31 30 30 30 31 30 29 29 28 27 26 25 25 25 25 26 25 25 25 25 24 24 24 25 25 25 25 25 25 24 24
29 30 32 33 33 32 33 33 33 33 32 31 31 31 32 32 31 30 30 29 28 28 27 26 27 27 27 27 27 27 27 27 26 26 26 26 26 27 27 26 26 25 24 24
29 31 33 33 33 34 34 34 35 35 33 33 32 32 33 32 32 31 30 28 29 29 29 28 28 28 29 29 28 28 28 27 27 26 26 26 26 26 26 26 26 26 26 26
29 30 31 33 33 34 35 33 33 34 34 33 30 31 32 31 31 31 31 31 31 31 31 31 30 30 30 30 29 29 29 28 27 28 28 28 28 26 26 26 26 27 27 27
Wind_Direction
207 208 208 200 188 188 212 219 241 255 293 330 331 351 7 7 6 14 13 16 19 19 22 24 25 27 29 28 26 26 28 30 34 36 37 38 34 32 28 23 23 22 20 18
216 219 218 201 193 199 213 222 236 251 254 263 293 319 337 349 343 349 355 358 5 13 19 19 22 20 22 27 27 25 23 22 27 30 30 29 27 25 22 19 18 17 14 9
221 219 220 211 203 207 218 217 222 237 255 264 288 301 322 321 325 329 337 341 347 359 9 13 15 17 21 22 21 21 21 23 20 22 24 26 24 21 19 18 17 16 14 9
222 214 217 219 210 209 220 220 223 228 250 268 278 291 302 307 308 313 314 322 334 347 353 1 7 12 14 13 14 15 17 19 18 18 19 19 18 17 16 16 18 15 12 9
222 220 217 219 217 213 215 216 227 229 237 253 261 270 287 297 306 312 309 314 323 330 340 351 0 4 3 3 4 7 11 13 13 12 13 14 13 14 14 13 13 11 10 6
219 223 222 219 218 219 217 216 223 229 232 238 250 252 263 281 290 300 300 307 313 319 322 334 343 346 354 358 359 358 3 5 5 5 7 7 7 7 7 8 7 6 5 2
222 223 224 221 218 219 218 219 232 233 236 240 250 254 264 272 277 284 290 295 300 308 312 323 331 335 345 351 352 353 357 358 360 360 360 359 359 1 2 2 1 0 359 358
223 224 224 225 220 221 221 219 228 228 236 251 253 257 263 269 272 276 281 284 287 292 300 309 317 324 333 339 342 344 348 351 352 353 351 349 351 354 357 357 356 356 355 354
223 226 228 230 225 219 221 221 223 232 238 250 252 260 266 268 270 271 272 275 277 278 287 298 304 310 318 325 331 335 338 343 344 344 345 344 344 347 350 351 350 349 348 348
216 226 226 230 226 221 221 221 220 227 233 241 249 255 256 265 274 273 269 270 273 277 282 289 291 297 303 312 319 323 327 330 332 333 337 339 339 341 343 344 344 343 343 343
213 220 223 228 226 224 222 220 220 224 230 240 247 248 250 255 266 272 274 272 273 276 282 286 283 283 289 300 309 314 317 321 322 324 327 333 336 336 336 337 339 340 339 338
214 214 221 230 231 223 222 221 222 226 227 231 242 255 261 260 261 264 269 271 274 275 277 279 280 280 283 291 297 305 309 312 316 319 321 325 330 330 329 330 333 334 333 333
216 215 216 222 229 228 225 222 220 224 229 234 242 249 255 258 260 263 266 269 269 271 275 276 277 278 280 285 291 300 304 305 308 311 314 318 322 324 325 325 327 328 328 328
217 219 216 218 222 228 230 226 224 223 226 232 239 248 256 255 257 261 263 265 266 269 271 272 274 276 276 280 286 297 299 300 303 305 309 313 315 319 321 320 321 324 325 326
218 220 217 213 215 224 229 226 225 227 227 231 238 243 252 257 258 262 263 265 265 265 267 268 271 274 274 278 282 288 294 296 299 301 304 306 309 313 316 317 317 319 322 324
217 218 219 217 216 220 225 227 223 224 225 229 236 240 244 252 256 261 262 264 264 265 264 267 270 272 273 276 280 285 289 293 297 299 302 303 306 309 310 312 312 315 317 319
217 217 219 220 220 223 223 225 227 225 224 225 231 240 243 248 254 258 260 262 265 265 264 267 269 271 272 276 279 283 285 287 291 294 298 301 305 307 308 308 309 310 313 314
218 218 218 219 223 229 228 226 228 231 231 229 231 237 242 247 251 256 261 261 261 261 265 266 268 271 274 275 279 283 286 287 289 293 294 297 301 302 304 305 306 307 309 311
221 220 220 224 228 233 232 228 227 229 230 229 228 233 239 244 249 253 257 257 258 263 263 264 267 271 275 276 279 281 281 284 288 291 291 295 299 299 301 302 303 305 307 308
222 224 222 225 227 231 232 230 230 231 234 232 230 232 237 243 249 253 256 259 259 262 263 263 267 271 274 276 277 279 279 281 286 289 292 294 295 297 298 300 301 302 304 305
221 224 224 225 230 232 231 231 230 228 231 232 234 234 238 242 248 253 256 259 262 263 262 263 266 270 273 274 277 278 279 279 282 286 290 292 293 297 298 298 299 301 302 302
223 224 226 226 227 231 234 231 230 232 232 234 236 237 240 246 251 255 257 258 260 262 263 263 265 269 272 274 276 279 279 281 284 287 288 289 291 295 297 298 298 299 301 301
221 224 226 227 227 229 233 234 235 236 237 239 241 243 245 248 252 256 256 257 258 259 260 261 265 268 271 274 276 279 280 282 284 286 287 288 290 292 294 297 299 299 299 300
217 220 224 227 229 231 233 236 239 238 240 241 242 245 248 249 253 256 256 255 254 256 258 260 264 267 271 273 275 277 280 282 281 283 285 287 288 291 293 294 295 297 300 300
217 219 223 226 230 232 235 237 238 240 240 243 245 246 247 249 252 255 255 256 256 256 255 259 263 267 270 272 273 275 277 279 281 282 284 285 287 289 291 293 294 297 300 301
219 219 221 223 227 231 236 238 240 241 242 244 244 245 247 249 252 254 255 258 258 257 256 260 262 266 269 272 272 274 274 275 278 281 282 283 285 287 289 291 293 296 297 299